Погода в Орлово

Россия / Алтайский край     53°19′07″N   79°14′17″E
темп.,
°C
ветер,
м/с
пор.,
м/с
влажн.,
%
обл.,
%
осадки,
мм/ч
давл.,
гПа
погр.,
м
16 сентября, чт
чт1601:00+15ююз3339100 0.0 101219
04:00+14ююв3342100 0.0 101127
07:00+14ююв2239100 0.0 101036
10:00+17ююз3637100 0.0 1009226
13:00+21зюз683514 0.0 10082094
16:00+23зюз6829100 0.0 10082443
19:00+21юз3632100 0.0 1007121
22:00+17ююз483856 0.0 1007111
17 сентября, пт
пт1701:00+16ю4113652 0.0 1006157
04:00+15ю5143288 0.0 1004237
07:00+16ю61632100 0.0 1002313
10:00+19ююз61230100 0.0 1001439
13:00+25юз8122634 0.0 10001651
16:00+22зюз91236100 0.0 9991431
19:00+21зюз5937100 0.0 997420
22:00+14сз81066100 0.1 997719
18 сентября, сб
сб1801:00+10сз61087100 4.7 1000947
04:00+10з712784 0.1 1002632
07:00+7з611734 0.1 1006579
10:00+8зюз710615 0.0 10091039
13:00+12зюз794476 0.0 10101873
16:00+12зюз794191 0.0 10101900
19:00+12з484236 0.0 10101317
22:00+9з345687 0.0 101184
19 сентября, вс
вс1901:00+9ю346085 0.0 1010112
04:00+7ю4767100 0.0 1008126
07:00+8ююв3562100 0.0 1006124
10:00+11ююз4845100 0.0 1004408
13:00+14з794364 0.0 10041454
16:00+10з795797 0.0 10061452
19:00+10з5948100 0.0 10071694
22:00+6юз34563 0.0 100767
20 сентября, пн
пн2001:00+6зсз71064100 0.0 1008796
04:00+5зюз51067100 0.1 1009561
07:00+4зюз71181100 0.1 1010918
10:00+4зюз71293100 0.3 1012999
13:00+5з7116887 0.6 10141196
16:00+7з81058100 0.4 10151609
19:00+6зсз6106781 0.7 10171141
22:00+3зсз498624 0.0 1019340